Wetbulb
58.65 61.51 62.94 63.54 63.63 63.92 63.88 64.14 65.06 64.84 65.27 65.46 65.33 63.35 62.09 61.16 61.13 61.20 61.99 61.22 63.47 65.78 67.67 67.82 67.98 68.00 67.62 67.38 66.32 65.02 64.03 63.61 63.18 62.79 61.83 60.97 60.72 60.19 60.17 61.09 60.72 60.31 60.06
56.32 59.14 61.85 61.68 62.98 63.63 64.51 64.49 64.18 64.68 63.97 64.00 62.37 61.22 60.54 60.10 59.80 58.54 60.42 62.16 62.85 64.62 66.59 67.08 67.63 67.32 66.98 66.03 65.02 64.12 63.11 62.56 62.04 61.63 60.77 60.27 59.97 60.39 60.64 59.66 59.28 59.69 58.74
55.33 55.92 58.53 60.82 60.90 62.70 62.80 62.93 62.05 63.02 63.11 61.80 60.61 60.50 60.80 59.87 59.18 59.90 60.52 62.18 63.38 62.86 65.14 67.12 67.44 67.04 66.48 65.85 65.07 63.80 62.90 62.14 61.64 60.97 60.64 59.99 59.91 59.68 59.03 59.56 59.14 58.05 57.02
54.29 55.27 56.84 57.99 59.73 60.55 60.80 61.15 61.34 60.02 60.45 60.96 61.06 60.34 60.15 60.05 60.18 60.63 60.08 61.22 63.62 63.87 64.21 65.62 67.03 66.87 66.28 65.65 65.03 64.09 62.83 61.74 61.24 60.81 60.41 60.13 59.40 59.85 59.44 58.71 57.52 57.22 56.75
53.02 53.55 54.61 56.76 58.46 58.35 57.73 57.54 57.76 58.22 58.18 57.86 58.61 59.90 58.93 59.35 59.67 60.54 60.87 61.46 62.45 64.06 64.82 64.25 64.05 64.25 64.93 65.25 65.42 64.60 63.32 61.98 61.24 60.64 59.93 60.19 59.76 59.14 58.13 57.63 57.25 56.71 56.20
53.07 53.27 53.79 54.29 56.84 57.95 56.64 55.97 55.85 57.35 57.01 56.36 56.87 57.16 57.53 57.66 59.34 59.44 59.66 60.95 61.75 62.56 64.07 63.66 63.82 63.44 63.24 65.20 65.06 64.75 63.32 61.79 61.32 60.53 60.48 59.78 58.89 58.47 58.22 57.54 56.90 56.39 55.67
52.67 52.91 53.62 54.01 55.04 55.24 55.50 56.41 55.07 55.12 55.84 57.07 54.59 54.13 54.64 55.43 57.09 58.02 59.56 59.71 60.42 61.77 62.49 63.65 64.28 64.51 63.56 63.92 64.52 64.31 63.85 62.87 61.55 61.00 60.37 59.38 58.80 58.33 58.28 57.23 56.51 55.61 54.70
52.54 52.36 52.81 52.93 53.74 55.08 55.53 55.21 54.54 55.09 55.42 57.17 54.24 52.76 51.19 54.66 55.35 56.39 56.35 57.35 59.48 60.61 59.96 61.60 63.03 62.93 61.74 61.90 61.89 63.34 63.54 63.16 62.29 61.39 60.13 59.03 57.78 58.02 58.48 57.27 56.31 55.10 53.99
51.95 52.08 52.13 52.15 52.82 54.80 55.30 55.29 55.43 54.94 54.14 55.49 56.74 54.44 49.84 48.96 52.82 53.16 53.40 53.52 53.98 57.31 58.85 59.48 60.15 60.72 60.65 60.85 61.28 61.61 61.80 61.82 62.15 61.60 60.06 58.59 57.58 58.00 58.04 57.06 56.37 55.00 53.71
51.78 51.85 51.26 51.21 51.83 53.36 54.43 55.27 55.90 55.40 55.38 53.27 54.52 55.49 53.56 52.93 51.36 49.86 51.72 52.02 52.28 53.93 56.43 57.00 57.13 57.90 59.24 58.90 58.86 58.53 59.48 60.41 61.18 60.78 60.04 58.35 57.93 58.19 57.73 57.09 56.17 55.30 53.65
50.25 50.60 50.59 50.75 50.97 51.66 53.08 54.02 54.79 55.70 55.52 54.12 53.80 52.97 52.77 51.55 49.31 48.95 48.75 50.88 50.66 52.23 53.76 56.03 56.81 55.72 53.99 56.95 58.02 57.57 58.07 59.60 60.63 59.87 59.40 59.04 58.33 57.94 58.19 56.96 55.98 55.13 53.46
47.84 48.09 48.21 48.94 49.63 50.28 50.96 52.16 53.70 54.30 55.13 54.58 54.19 54.00 51.81 50.71 49.36 49.27 47.12 49.19 50.75 49.01 50.88 50.23 51.76 51.60 52.45 53.70 54.28 55.93 57.03 58.79 59.13 59.39 60.14 59.55 58.99 58.24 57.58 56.94 55.96 54.58 53.10
46.13 46.86 47.55 47.82 48.50 49.26 49.96 50.98 51.80 52.77 52.18 52.42 53.27 53.07 53.98 53.03 51.81 52.42 51.82 49.16 48.65 47.74 46.90 47.13 49.02 48.83 48.74 49.42 52.51 53.85 55.50 57.37 57.94 59.06 59.71 58.75 56.86 56.32 56.42 55.89 55.15 53.36 51.87
45.87 47.10 47.25 47.87 48.53 49.35 50.28 50.10 50.65 51.70 52.56 51.79 51.40 52.09 53.01 53.60 52.65 52.24 50.76 49.85 45.89 43.76 45.86 48.60 48.57 48.81 48.73 47.82 49.14 49.97 53.47 55.24 56.12 57.61 57.75 56.92 55.39 55.09 53.73 53.16 51.62 50.18 49.65
46.90 47.47 47.45 47.52 48.20 49.03 49.47 50.00 49.99 50.09 51.59 52.54 52.51 52.45 51.69 53.17 52.51 52.32 53.02 51.75 51.32 47.13 45.15 47.48 47.59 47.02 47.10 47.53 48.59 47.37 47.86 50.91 51.93 52.41 51.34 51.53 51.57 50.33 49.09 47.46 46.34 46.52 47.25
45.52 45.66 45.84 46.41 46.17 46.32 46.97 48.30 48.91 49.80 49.92 51.54 52.35 51.84 51.71 52.03 52.09 52.18 52.73 52.66 52.84 51.81 48.02 47.63 45.37 43.79 45.18 45.69 47.84 45.97 46.40 48.79 49.14 48.54 48.19 47.18 46.48 45.76 44.73 44.27 44.25 45.01 45.48
43.42 43.52 44.19 44.51 44.78 45.20 46.45 45.87 46.92 48.39 48.53 49.47 50.94 51.45 51.33 51.82 51.60 51.01 50.50 50.76 51.15 51.37 49.68 41.34 42.76 42.04 41.86 43.57 43.25 43.22 44.43 43.09 45.41 46.80 46.00 44.92 44.00 43.51 43.35 42.93 43.17 43.96 44.62
42.41 42.68 43.05 43.48 44.05 44.78 45.81 46.73 46.94 48.02 47.94 48.06 49.15 50.22 50.44 51.20 51.98 50.87 49.93 49.19 49.65 50.37 48.02 43.17 39.06 38.80 39.08 41.34 39.40 39.44 39.50 39.49 39.47 44.05 43.89 43.72 43.34 43.06 42.39 42.53 42.28 43.11 43.64
41.73 42.32 42.98 43.14 44.01 45.19 46.09 47.36 49.01 48.66 48.43 48.94 49.75 49.37 49.83 50.74 50.83 50.63 50.41 49.13 48.70 46.85 42.92 40.39 37.37 36.59 35.39 35.91 34.13 34.09 34.15 33.62 35.66 37.77 42.01 42.09 41.91 41.85 41.40 40.92 41.22 42.45 42.69
40.96 41.77 42.53 43.03 44.39 45.63 46.58 47.62 48.95 48.64 48.40 48.42 49.15 49.04 49.35 50.67 50.87 49.70 48.74 47.91 45.73 43.30 40.98 37.90 34.71 33.79 34.22 32.72 34.34 31.77 30.48 31.93 31.92 33.26 35.57 36.45 37.48 38.75 40.74 40.03 40.67 40.60 40.65
40.65 41.20 41.61 42.47 43.88 44.75 45.66 46.61 48.11 48.16 48.25 47.64 48.00 49.45 50.40 49.30 48.00 48.95 48.04 45.49 44.71 42.65 39.42 36.28 34.74 33.19 31.84 31.08 32.66 32.32 31.62 31.21 30.45 32.22 32.93 33.83 35.03 35.93 35.76 35.17 35.75 36.97 38.19
39.96 40.38 40.42 40.80 41.67 43.25 44.60 45.83 45.22 44.24 43.78 43.17 42.09 42.96 43.90 45.18 47.04 47.93 47.12 45.51 44.43 40.57 37.22 36.10 34.31 34.19 33.00 33.43 32.51 32.14 30.13 29.84 30.87 30.95 31.02 31.96 32.63 32.85 33.00 33.35 33.22 35.18 36.59
39.10 38.97 39.31 39.63 39.65 41.37 43.02 43.32 42.64 41.30 40.74 40.23 40.25 40.57 39.91 40.42 42.69 43.57 43.98 43.52 43.33 42.74 40.75 37.65 35.86 35.34 33.24 33.57 33.06 31.50 30.24 30.12 28.81 28.99 30.45 30.02 30.71 30.50 32.05 31.66 33.71 35.15 36.11
37.75 37.43 37.67 38.63 38.77 39.97 41.60 41.13 40.25 38.45 37.83 37.60 38.16 38.65 38.14 37.83 38.09 36.15 35.12 34.25 34.27 34.84 35.32 36.75 35.86 34.13 33.43 34.39 35.47 33.65 31.93 29.22 29.25 29.34 30.06 28.12 29.25 29.98 31.27 32.47 31.59 33.62 34.80
36.64 36.43 36.76 37.47 37.60 39.09 40.35 39.91 38.21 37.19 36.25 36.20 37.29 37.60 38.08 37.97 39.36 38.08 34.15 32.68 32.75 33.97 37.62 37.55 36.66 36.08 36.09 35.89 33.74 31.73 29.37 29.41 27.22 27.95 29.04 28.89 28.72 29.46 30.42 31.08 31.71 31.50 34.02
35.85 36.22 35.94 36.64 37.94 37.81 39.97 39.33 37.30 36.05 34.62 34.84 36.62 36.97 38.29 36.91 37.45 36.33 34.13 33.21 30.65 31.19 32.16 32.25 32.44 32.97 33.57 33.75 32.98 32.21 30.88 29.49 27.80 27.59 29.48 28.64 28.24 28.00 28.55 30.15 30.96 31.61 31.56
MSLP
1018.38 1018.21 1018.11 1018.05 1018.03 1018.05 1018.04 1017.98 1018.04 1018.17 1018.20 1018.36 1018.53 1018.81 1018.95 1019.04 1019.24 1019.38 1019.33 1019.39 1019.41 1019.31 1019.37 1019.44 1019.84 1019.97 1020.34 1020.70 1021.00 1021.17 1021.41 1021.68 1021.98 1022.17 1022.49 1022.74 1023.01 1023.21 1023.46 1023.58 1023.81 1023.96 1023.99
1018.66 1018.41 1018.19 1018.24 1018.09 1018.07 1018.01 1018.04 1018.00 1018.09 1018.16 1018.24 1018.37 1018.61 1018.84 1019.09 1019.28 1019.40 1019.28 1018.97 1018.91 1018.96 1019.07 1019.15 1019.47 1019.83 1020.07 1020.49 1020.82 1021.17 1021.45 1021.69 1022.05 1022.30 1022.56 1022.74 1022.97 1023.27 1023.50 1023.65 1023.81 1024.10 1024.36
1018.71 1018.59 1018.40 1018.24 1018.25 1018.15 1018.17 1018.07 1018.05 1018.05 1018.21 1018.47 1018.59 1018.60 1018.74 1018.89 1019.09 1018.89 1018.98 1018.83 1018.85 1018.36 1018.56 1018.82 1019.13 1019.38 1019.75 1020.22 1020.61 1021.06 1021.52 1021.79 1022.16 1022.35 1022.53 1022.78 1023.07 1023.23 1023.48 1023.75 1024.03 1024.25 1024.52
1018.75 1018.59 1018.46 1018.34 1018.24 1018.19 1018.15 1018.19 1018.22 1018.34 1018.37 1018.46 1018.44 1018.51 1018.60 1018.60 1018.58 1018.61 1018.51 1018.71 1018.63 1018.29 1018.24 1018.55 1018.81 1019.21 1019.39 1019.62 1020.33 1020.87 1021.26 1021.69 1021.92 1022.41 1022.60 1022.78 1022.98 1023.37 1023.62 1023.82 1024.05 1024.39 1024.59
1018.76 1018.61 1018.47 1018.31 1018.25 1018.22 1018.21 1018.33 1018.34 1018.39 1018.28 1018.37 1018.43 1018.43 1018.51 1018.50 1018.41 1018.47 1018.42 1018.43 1018.26 1018.26 1018.03 1018.34 1018.55 1018.93 1019.26 1019.52 1019.89 1020.35 1020.82 1021.53 1021.92 1022.21 1022.64 1022.81 1023.03 1023.28 1023.62 1023.93 1024.20 1024.44 1024.65
1018.74 1018.57 1018.37 1018.27 1018.19 1018.12 1018.17 1018.27 1018.32 1018.36 1018.34 1018.39 1018.36 1018.39 1018.42 1018.34 1018.20 1018.16 1018.02 1017.95 1017.98 1018.04 1018.24 1018.10 1018.24 1018.76 1019.21 1019.17 1019.22 1019.75 1020.43 1021.46 1021.98 1022.21 1022.64 1022.85 1022.93 1023.29 1023.66 1023.93 1024.21 1024.43 1024.65
1018.71 1018.58 1018.37 1018.23 1018.13 1018.20 1018.16 1018.19 1018.24 1018.26 1018.28 1018.34 1018.47 1018.51 1018.37 1018.27 1018.08 1017.97 1017.86 1017.90 1017.94 1017.97 1018.07 1018.03 1017.81 1018.23 1018.75 1019.18 1019.40 1019.73 1020.20 1020.76 1021.62 1022.02 1022.47 1022.91 1022.98 1023.07 1023.47 1023.84 1024.19 1024.43 1024.67
1018.52 1018.39 1018.22 1018.09 1017.99 1018.03 1017.97 1018.14 1018.15 1017.93 1017.95 1018.01 1017.98 1018.35 1018.16 1017.87 1017.84 1017.76 1017.91 1017.91 1017.79 1017.77 1018.07 1018.02 1017.79 1018.02 1018.37 1018.76 1019.12 1019.44 1019.82 1020.19 1020.90 1021.72 1022.23 1022.70 1022.93 1023.13 1023.33 1023.68 1024.12 1024.46 1024.63
1018.49 1018.34 1018.11 1018.01 1017.83 1017.81 1017.72 1017.66 1017.77 1017.75 1017.57 1017.66 1017.63 1017.45 1017.72 1017.39 1017.40 1017.66 1017.84 1017.98 1017.95 1017.92 1017.88 1018.01 1018.04 1018.19 1018.06 1018.25 1018.80 1019.28 1019.60 1020.00 1020.22 1021.05 1021.91 1022.21 1022.42 1022.89 1023.20 1023.45 1023.96 1024.37 1024.65
1018.31 1018.13 1018.00 1017.92 1017.75 1017.37 1017.33 1017.21 1017.12 1017.18 1017.34 1017.23 1017.35 1017.30 1017.37 1017.33 1017.19 1017.58 1017.76 1017.90 1017.99 1018.05 1017.88 1017.90 1018.05 1018.20 1018.03 1017.99 1018.59 1018.76 1019.50 1019.95 1020.38 1020.77 1021.25 1022.02 1021.98 1022.21 1022.70 1023.20 1023.64 1024.03 1024.49
1018.21 1017.91 1017.78 1017.64 1017.57 1017.30 1017.06 1016.92 1016.81 1016.78 1016.72 1016.76 1016.76 1016.91 1017.01 1017.33 1017.48 1017.55 1017.36 1017.45 1017.95 1017.97 1018.07 1017.94 1017.76 1017.99 1018.35 1017.63 1018.21 1018.36 1018.95 1019.35 1019.95 1020.58 1020.89 1021.48 1021.76 1022.09 1022.24 1022.82 1023.27 1023.58 1024.20
1017.98 1017.67 1017.64 1017.53 1017.31 1017.01 1016.76 1016.58 1016.47 1016.45 1016.35 1016.22 1016.24 1016.27 1016.21 1016.29 1016.76 1017.09 1017.17 1017.21 1017.43 1017.70 1017.91 1018.28 1018.13 1018.19 1018.29 1018.17 1018.85 1018.32 1018.65 1019.31 1019.57 1020.15 1020.58 1020.89 1021.28 1021.59 1021.93 1022.37 1022.90 1023.40 1023.79
1017.79 1017.43 1017.36 1017.18 1016.92 1016.55 1016.27 1016.15 1016.08 1015.99 1016.03 1016.00 1015.97 1015.81 1015.71 1015.67 1015.43 1015.97 1016.39 1016.88 1017.09 1017.63 1018.02 1018.05 1018.13 1018.29 1018.38 1018.62 1018.76 1018.54 1018.83 1019.30 1019.21 1020.03 1020.10 1020.44 1020.88 1021.47 1021.90 1022.03 1022.57 1023.16 1023.54
1017.79 1017.34 1017.04 1016.80 1016.48 1016.12 1015.86 1015.77 1015.66 1015.58 1015.53 1015.55 1015.59 1015.61 1015.47 1015.21 1015.39 1015.12 1015.60 1016.27 1016.98 1017.49 1017.76 1017.61 1017.90 1018.35 1018.36 1018.81 1018.78 1019.09 1019.02 1019.12 1019.46 1019.77 1020.04 1020.25 1020.76 1021.36 1021.83 1022.23 1022.83 1023.28 1023.38
1017.63 1017.05 1016.66 1016.45 1016.10 1015.74 1015.56 1015.41 1015.31 1015.19 1015.15 1015.02 1014.82 1014.93 1015.07 1014.97 1014.85 1014.85 1015.13 1015.41 1015.62 1016.27 1017.01 1017.23 1017.69 1018.02 1018.48 1018.76 1018.89 1019.19 1019.47 1019.55 1020.30 1020.22 1020.60 1020.95 1021.14 1021.69 1022.33 1022.83 1023.15 1023.24 1023.70
1017.53 1017.06 1016.61 1016.19 1015.76 1015.45 1015.23 1015.06 1014.87 1014.72 1014.63 1014.48 1014.39 1014.25 1014.19 1014.38 1014.60 1014.63 1014.61 1014.87 1015.07 1015.36 1016.00 1016.80 1017.72 1018.24 1018.48 1018.71 1018.99 1019.42 1019.55 1019.66 1020.51 1020.92 1020.80 1021.54 1022.04 1022.02 1022.42 1022.83 1023.14 1023.42 1023.40
1017.43 1016.94 1016.47 1015.99 1015.55 1015.12 1014.73 1014.60 1014.41 1014.13 1013.94 1013.82 1013.74 1013.67 1013.51 1013.56 1013.87 1014.17 1014.49 1014.57 1014.72 1015.07 1015.52 1017.26 1017.76 1018.37 1018.63 1018.91 1019.22 1019.58 1019.83 1020.15 1020.59 1021.04 1021.04 1021.79 1022.33 1022.33 1022.66 1022.74 1023.00 1023.30 1023.31
1017.19 1016.74 1016.25 1015.74 1015.19 1014.63 1014.17 1013.83 1013.55 1013.31 1013.17 1013.10 1012.95 1012.91 1012.80 1012.92 1013.14 1013.40 1013.66 1013.97 1014.23 1014.42 1015.18 1016.44 1017.73 1018.50 1018.73 1019.05 1019.39 1019.55 1020.18 1020.67 1021.02 1021.24 1021.21 1022.03 1022.04 1022.39 1022.33 1022.60 1022.91 1023.19 1023.03
1016.97 1016.53 1016.05 1015.55 1014.84 1014.15 1013.57 1013.10 1012.68 1012.49 1012.41 1012.34 1012.28 1012.20 1012.14 1012.25 1012.45 1012.76 1012.97 1013.38 1013.70 1014.12 1014.64 1015.84 1017.35 1018.52 1019.10 1019.31 1019.96 1020.36 1020.45 1021.20 1021.49 1021.56 1021.58 1021.78 1021.74 1022.00 1022.16 1022.45 1022.72 1022.84 1022.73
1017.03 1016.48 1015.99 1015.33 1014.58 1013.77 1013.19 1012.56 1012.03 1011.77 1011.72 1011.77 1011.76 1011.77 1011.74 1011.76 1011.94 1012.25 1012.61 1012.97 1013.52 1013.92 1014.54 1015.64 1016.88 1018.02 1018.75 1019.55 1019.70 1020.27 1020.90 1021.45 1021.87 1021.72 1021.77 1021.92 1021.87 1021.99 1022.02 1022.20 1022.46 1022.53 1022.66
1016.96 1016.48 1015.89 1015.22 1014.45 1013.81 1013.09 1012.21 1011.49 1011.29 1011.42 1011.45 1011.44 1011.49 1011.46 1011.40 1011.53 1011.77 1012.07 1012.71 1013.23 1014.09 1014.58 1015.51 1016.55 1017.69 1018.44 1019.17 1019.51 1020.12 1020.86 1021.54 1021.89 1021.67 1021.97 1022.03 1022.26 1022.47 1022.35 1022.44 1022.56 1022.58 1022.71
1017.02 1016.55 1015.97 1015.51 1014.73 1013.93 1013.14 1012.36 1011.90 1011.85 1011.82 1011.96 1011.96 1011.91 1011.80 1011.72 1011.73 1012.02 1012.34 1012.49 1012.93 1013.73 1014.59 1015.39 1016.40 1016.99 1017.63 1018.33 1019.12 1019.83 1020.73 1021.37 1021.83 1022.09 1021.97 1022.04 1022.43 1022.29 1022.31 1022.32 1022.44 1022.51 1022.69
1017.19 1016.74 1016.32 1015.77 1015.01 1014.37 1013.72 1013.25 1012.89 1012.68 1012.62 1012.81 1012.81 1012.73 1012.71 1012.83 1012.80 1012.83 1013.13 1013.58 1013.99 1014.30 1014.64 1015.22 1015.93 1016.57 1017.40 1017.75 1018.47 1019.55 1020.30 1020.75 1021.26 1021.96 1021.91 1021.96 1022.33 1021.99 1022.00 1022.07 1022.11 1022.22 1022.29
1017.51 1017.08 1016.67 1015.98 1015.46 1014.95 1014.42 1013.99 1013.76 1013.67 1013.62 1013.51 1013.71 1013.80 1013.78 1013.88 1013.96 1014.02 1014.32 1014.74 1015.20 1015.23 1015.53 1015.75 1016.21 1016.86 1017.19 1017.56 1018.14 1018.85 1019.66 1020.58 1021.34 1021.83 1021.92 1021.88 1022.17 1021.81 1021.77 1021.79 1022.03 1022.04 1022.11
1017.84 1017.36 1017.08 1016.38 1015.85 1015.46 1015.03 1014.66 1014.42 1014.42 1014.39 1014.60 1014.68 1014.64 1014.65 1014.68 1014.85 1015.00 1015.06 1015.59 1016.01 1016.17 1016.28 1016.42 1016.68 1017.35 1017.45 1017.73 1018.27 1018.84 1019.79 1020.35 1021.21 1021.66 1022.05 1021.89 1022.04 1021.79 1021.80 1021.72 1021.81 1021.93 1021.94
1018.15 1017.74 1017.40 1017.00 1016.42 1016.05 1015.61 1015.32 1015.10 1015.03 1015.20 1015.34 1015.48 1015.45 1015.50 1015.62 1015.80 1015.86 1015.90 1016.23 1016.58 1017.34 1017.28 1017.56 1017.94 1018.30 1018.37 1018.58 1018.90 1019.21 1019.76 1020.28 1020.90 1021.49 1021.82 1022.02 1022.17 1022.19 1021.83 1021.83 1021.80 1021.74 1021.76
Wind_Speed
3 3 2 2 2 2 1 2 1 2 4 6 7 6 6 6 5 4 3 6 8 10 12 11 16 15 13 13 11 10 10 9 10 12 12 11 9 9 8 7 9 7 8
3 3 3 2 2 1 1 1 1 1 1 3 5 5 4 2 3 3 3 5 9 9 11 10 15 16 14 14 12 12 11 11 11 12 12 11 10 10 9 8 7 9 7
4 4 3 2 3 2 3 1 1 0 1 2 3 4 6 7 5 8 7 5 6 10 12 12 17 18 17 15 14 13 13 13 13 13 13 11 11 10 8 9 9 8 6
4 4 3 3 3 2 3 2 2 1 2 3 3 4 5 6 8 8 6 4 5 4 5 10 14 19 19 18 16 17 17 15 14 13 13 13 12 12 10 10 8 8 7
4 3 3 3 3 3 4 3 3 3 3 4 4 4 4 6 7 5 7 7 7 7 5 9 16 16 17 20 21 20 18 16 15 13 12 14 14 12 10 10 9 8 7
5 4 4 4 3 3 4 3 5 4 4 4 4 3 5 5 5 5 7 6 7 7 9 8 8 9 13 17 20 20 16 15 15 14 14 13 12 12 13 11 9 8 7
5 4 3 4 3 4 5 5 4 5 5 3 1 2 3 4 6 5 5 5 8 7 6 10 8 7 8 17 20 18 21 19 16 16 15 13 13 13 13 11 10 9 7
6 5 5 4 4 4 6 5 5 2 4 5 4 1 3 4 5 6 5 4 7 5 4 6 8 11 9 7 7 17 22 23 20 18 15 14 11 13 13 11 10 9 8
7 7 7 6 5 4 5 7 6 7 5 6 9 5 2 6 1 1 3 3 2 3 3 4 5 8 10 8 9 12 17 19 21 21 17 15 14 14 13 12 11 9 8
8 5 5 6 8 5 6 7 6 7 7 5 3 7 2 1 3 2 2 2 1 4 3 2 2 5 7 6 10 11 14 15 20 20 18 17 17 16 14 13 12 11 8
8 8 8 7 7 6 7 8 9 8 6 7 6 2 5 3 1 2 2 1 2 3 3 3 4 5 1 3 6 10 18 20 21 19 18 18 15 15 16 14 13 11 8
7 9 7 7 8 7 8 8 10 10 9 7 6 7 5 5 5 4 2 3 3 2 2 2 2 1 2 4 4 12 18 18 19 19 19 19 18 16 14 14 13 11 8
7 9 9 8 8 8 8 8 9 10 10 8 8 7 8 8 4 7 8 4 4 2 2 2 3 2 2 1 2 10 16 20 22 21 20 16 13 13 15 12 10 9 7
8 10 9 9 10 9 8 7 7 8 9 8 9 8 8 8 6 6 5 6 3 3 2 4 3 4 4 3 5 5 6 14 16 17 17 13 12 11 9 9 7 5 6
7 11 12 10 11 12 11 9 6 8 9 10 10 9 7 6 6 7 7 7 8 6 7 6 3 4 3 4 6 5 5 7 4 6 2 5 12 13 10 6 3 4 8
10 11 12 11 11 12 11 10 9 10 10 8 8 10 9 7 5 6 8 8 8 9 6 3 3 3 4 4 7 5 5 9 8 3 11 9 9 10 7 6 6 8 9
10 11 12 12 12 13 13 10 11 12 12 12 12 11 12 10 7 7 6 7 8 7 9 2 2 2 3 6 4 4 4 5 4 11 11 9 6 6 8 6 7 9 10
10 11 11 10 11 11 11 11 11 10 11 13 13 12 12 8 11 10 8 10 9 9 4 6 3 3 1 3 4 7 4 4 3 7 8 10 9 9 6 7 7 10 9
10 11 11 11 11 10 10 10 11 10 10 10 10 11 10 10 10 7 9 8 7 5 4 4 5 2 2 2 4 4 4 3 2 2 8 8 7 7 6 6 8 9 9
10 10 11 11 10 10 9 9 9 9 9 8 9 8 8 9 10 8 8 8 5 5 5 4 3 3 3 2 3 3 4 2 2 1 2 0 1 3 7 6 8 7 7
8 9 9 9 9 8 7 10 7 5 6 6 5 5 6 7 8 9 7 7 8 5 6 5 4 3 3 4 6 3 3 2 1 1 2 1 2 2 3 3 5 7 9
8 8 8 8 8 6 14 13 5 5 6 5 5 5 6 6 3 4 5 12 11 9 6 5 3 4 5 6 4 5 4 3 3 2 3 3 2 4 3 3 6 9 9
8 8 8 8 9 9 16 14 12 7 8 7 7 6 7 8 9 8 13 13 10 8 7 4 4 4 5 7 9 5 3 3 2 3 3 2 2 3 2 3 5 7 10
7 7 8 8 7 8 14 14 15 9 9 10 9 9 8 8 9 10 10 11 9 9 6 4 5 4 4 7 7 5 7 6 5 3 0 2 1 2 1 2 4 7 10
5 6 7 7 7 8 13 14 11 8 10 10 8 8 8 9 12 13 10 10 10 10 13 16 15 12 15 15 11 8 5 5 2 2 2 0 1 2 2 2 1 3 5
4 5 7 7 10 7 12 13 9 6 8 7 9 10 15 10 12 11 9 9 11 7 9 11 9 12 12 11 9 4 6 3 3 2 3 2 1 1 1 1 2 2 2
Wind_Direction
11 349 353 5 20 348 352 341 301 263 243 222 216 214 222 221 227 234 233 230 256 253 247 235 208 184 184 188 199 197 182 184 168 141 164 161 147 160 162 138 110 104 74
357 346 338 322 313 327 350 339 335 9 287 209 191 201 211 230 292 273 254 238 227 241 239 241 207 198 195 200 197 197 186 182 185 174 171 171 161 148 152 132 111 99 110
354 340 322 293 290 323 312 259 242 138 148 184 201 204 207 209 202 256 247 220 243 223 217 227 201 199 191 196 187 186 184 179 182 179 173 169 166 168 155 130 128 123 140
357 341 325 305 295 275 287 292 271 303 267 242 223 218 231 224 224 234 251 252 247 251 225 239 204 203 193 185 188 188 186 186 179 189 182 175 169 159 158 158 164 162 161
336 320 306 300 289 252 245 246 238 237 235 250 263 247 230 233 231 243 253 267 264 254 234 226 206 199 186 190 192 192 184 184 189 182 187 178 170 173 173 175 166 169 161
321 320 314 305 293 258 245 232 233 231 241 243 244 243 248 247 248 246 259 266 265 271 260 226 192 196 208 202 201 192 182 176 185 185 188 181 181 181 183 171 174 174 164
310 301 296 307 303 273 269 247 236 230 219 200 134 270 263 250 241 243 249 257 254 249 254 254 202 189 196 210 207 180 179 172 191 189 185 183 182 189 176 182 181 176 176
329 316 309 306 298 276 257 244 220 215 226 196 197 119 261 216 220 223 229 231 248 232 233 241 222 193 188 184 187 197 186 178 182 186 181 182 192 203 182 189 188 183 197
318 308 294 292 283 266 256 254 227 224 228 199 217 223 190 236 214 127 227 240 223 235 205 219 232 209 196 183 184 185 191 186 177 181 181 184 190 209 190 202 191 199 208
326 325 311 300 287 272 259 261 238 217 230 228 210 237 246 190 221 237 199 231 278 255 221 197 177 253 209 172 179 169 176 180 184 179 182 196 192 196 196 200 206 201 215
323 319 319 313 288 275 266 260 260 245 223 233 219 178 201 188 169 216 280 201 245 227 246 229 200 172 63 229 188 175 170 172 178 182 188 196 191 199 201 205 211 207 213
314 314 308 302 294 283 270 264 258 255 251 233 237 234 210 185 192 204 203 209 232 212 223 268 289 181 151 155 245 184 166 181 170 185 197 192 197 204 203 210 207 202 219
309 305 307 305 296 284 274 262 255 250 253 256 243 248 237 231 173 208 227 206 215 187 208 205 217 220 143 137 236 163 171 184 183 197 198 192 190 210 218 215 192 199 221
303 305 304 302 294 289 285 268 253 249 237 240 246 249 265 229 221 193 199 199 196 223 232 243 200 212 172 168 121 52 195 189 188 203 197 192 197 211 182 172 177 201 236
302 308 310 304 303 298 287 275 258 254 247 241 236 230 242 254 212 225 215 218 225 215 219 206 195 197 171 160 148 137 103 111 156 133 96 247 126 132 136 140 164 221 246
314 309 305 298 295 292 286 276 260 255 252 249 244 238 228 226 224 222 224 226 226 234 236 177 180 156 159 152 157 144 139 133 141 151 118 114 126 128 137 174 203 232 241
315 307 303 297 290 288 278 269 263 256 247 249 242 243 243 223 213 206 217 223 224 216 227 140 119 140 139 156 126 120 125 104 130 156 143 156 166 176 193 200 225 242 242
316 308 302 294 288 282 272 265 251 242 235 240 240 234 239 234 220 205 201 213 218 210 186 162 131 139 118 137 130 127 121 100 114 167 156 195 196 207 207 220 243 250 234
319 317 311 296 292 284 271 264 250 247 236 235 240 234 233 225 221 206 205 204 202 177 133 133 145 132 97 128 89 64 95 99 145 185 201 208 208 217 225 236 249 249 234
324 321 313 306 303 306 293 280 266 242 236 237 238 235 237 227 218 198 200 192 173 158 126 113 104 120 126 95 103 140 122 104 158 162 129 233 254 274 227 237 245 250 262
329 325 329 331 336 327 324 314 275 228 239 240 224 242 231 207 197 190 181 167 165 166 147 135 134 137 140 147 179 142 114 128 121 99 197 202 220 230 232 250 276 273 258
343 340 350 340 344 345 359 10 35 55 47 57 52 42 39 44 93 151 161 168 168 157 149 136 147 156 150 148 128 149 124 145 171 184 179 199 233 234 240 235 247 250 243
348 352 352 349 1 5 22 33 52 61 71 52 51 48 54 37 48 73 84 85 93 105 107 111 149 146 151 166 141 133 137 124 140 144 189 190 201 252 232 231 242 251 256
351 356 348 359 8 15 30 49 57 55 63 54 49 52 61 59 66 76 76 69 57 54 47 71 85 98 102 130 140 146 144 111 97 108 143 189 163 250 302 264 283 275 274
354 358 350 360 14 30 46 59 61 63 67 61 61 63 68 75 86 93 90 94 83 72 80 92 97 117 127 126 127 121 133 137 120 149 167 221 72 314 309 304 285 257 269
358 2 0 0 23 28 54 67 70 81 80 75 64 64 70 78 83 92 98 107 93 80 87 81 79 75 73 84 80 78 138 123 120 140 151 175 171 327 290 175 249 235 253